SDA-1672

operational
NORAD ID: 65982 Int'l Des: 2025-230 Owner: SDA Country: US
NOTLE

About SDA-1672

Description loading...

Live Position

Loading 3D Globe...

Upcoming Passes

Altitude History

Altitude vs Time

uPlot chart will show altitude changes over time

Two-Line Element Set

1 65982U 25230J 25318.55381102 .00000305 00000-0 25980-3 0 9991
2 65982 81.3038 50.7500 0004042 53.9868 306.1663 13.84957237 4100
Epoch: Nov 14, 2025 • Age: 14 hours

Current Status

Altitude 956.7 km
Velocity 7.38 km/s
Sub-Earth Point 76.74°N, 17.26°W
Launch Date Oct 14, 2025
Age 32 days
Type other

Technical Details

Classification Payload
Mass 400.00 kg
Dry Mass 400.00 kg
Total Mass 400.00 kg
Length 0.60 m
Diameter 0.40 m
Span 3.60 m
Shape Box + panels
Manufacturer LMSSD/TERRAN
Bus Type LM-T1TL
Phase Status In Orbit
Owner/State SDA/US

Large Constellations

Loading constellations...